Regional Weather Roundup
Issued by NWS

Home | Current Version | Previous Version | Text Only | Print | Product List | Glossary On
Versions: 1 2 3 4 5 6 7 8 9 10 11 12 13 14 15 16 17 18 19 20 21 22 23 24 25 26 27 28 29 30 31 32 33 34 35 36 37 38 39 40 41 42 43 44 45 46 47 48 49 50
225
ASUS43 KBIS 051310
RWRND

NORTH DAKOTA REGIONAL WEATHER ROUNDUP
NATIONAL WEATHER SERVICE BISMARCK ND
700 AM CST MON DEC 05 2016

NOTE: "FAIR" INDICATES FEW OR NO CLOUDS BELOW 12,000 FEET WITH NO
SIGNIFICANT WEATHER AND/OR OBSTRUCTIONS TO VISIBILITY.


NDZ001>003-009>011-017-051400-
NORTHWEST NORTH DAKOTA

CITY           SKY/WX    TMP DP  RH WIND       PRES   REMARKS
WILLISTON      CLOUDY    29  25  85 W10       29.53R WCI  20
MINOT          CLOUDY    20  18  92 E7        29.51F WCI  11
MINOT AFB      PTCLDY    19  17  91 SE9       29.50F WCI   8
$$

NDZ018>021-031>035-040>046-051400-
SOUTHWEST NORTH DAKOTA

CITY           SKY/WX    TMP DP  RH WIND       PRES   REMARKS
BISMARCK       CLOUDY    22  19  89 SE5       29.55S WCI  16
DICKINSON      CLOUDY    31  27  85 W22       29.50R WCI  18
GARRISON         N/A     26  23  88 S5        29.50S
HETTINGER ARPT LGT SNOW  31  28  89 NW14      29.53S FOG
$$

NDZ004>008-012>016-024-026-027-054-051400-
NORTHEAST NORTH DAKOTA

CITY           SKY/WX    TMP DP  RH WIND       PRES   REMARKS
GRAND FORKS    CLOUDY    26  24  92 E6        29.70R FOG     WCI  19
GRND FRKS AFB  CLOUDY    25  24  97 SE6       29.69S FOG     WCI  18
DEVILS LAKE    CLOUDY    22  21  96 E10       29.62R FOG     WCI  11
$$

NDZ022-023-025-028>030-036>039-047>053-051400-
SOUTHEAST NORTH DAKOTA

CITY           SKY/WX    TMP DP  RH WIND       PRES   REMARKS
FARGO          CLEAR     21  18  88 E6        29.67F WCI  13
JAMESTOWN      CLEAR     23  21  92 E9        29.57F WCI  13
$$





USA.gov is the U.S. government's official web portal to all federal, state and local government web resources and services.